TimeEST,TemperatureF,Dew PointF,Humidity,Sea Level PressureIn,VisibilityMPH,Wind Direction,Wind SpeedMPH,Gust SpeedMPH,PrecipitationIn,Events,Conditions,WindDirDegrees,DateUTC
12:15 AM,53.6,42.8,67,30.26,10.0,Calm,Calm,-,N/A,,Partly Cloudy,0,2013-11-22 05:15:00
12:35 AM,53.6,44.6,72,30.25,10.0,Calm,Calm,-,N/A,,Partly Cloudy,0,2013-11-22 05:35:00
12:55 AM,53.6,44.6,72,30.24,10.0,South,3.5,-,N/A,,Clear,180,2013-11-22 05:55:00
1:15 AM,53.6,44.6,72,30.23,10.0,Calm,Calm,-,N/A,,Mostly Cloudy,0,2013-11-22 06:15:00
1:35 AM,55.4,44.6,67,30.23,10.0,SSW,3.5,-,N/A,,Overcast,210,2013-11-22 06:35:00
1:55 AM,57.2,46.4,67,30.24,10.0,Calm,Calm,-,N/A,,Overcast,0,2013-11-22 06:55:00
2:15 AM,55.4,46.4,72,30.23,10.0,Calm,Calm,-,N/A,,Mostly Cloudy,0,2013-11-22 07:15:00
2:35 AM,57.2,46.4,67,30.23,10.0,Calm,Calm,-,N/A,,Partly Cloudy,0,2013-11-22 07:35:00
2:55 AM,57.2,48.2,72,30.23,10.0,SSW,3.5,-,N/A,,Scattered Clouds,210,2013-11-22 07:55:00
3:15 AM,57.2,48.2,72,30.23,10.0,SW,5.8,-,N/A,,Mostly Cloudy,220,2013-11-22 08:15:00
3:35 AM,57.2,48.2,72,30.22,10.0,SSW,6.9,-,N/A,,Mostly Cloudy,210,2013-11-22 08:35:00
3:55 AM,59.0,48.2,67,30.22,10.0,SW,10.4,-,N/A,,Overcast,220,2013-11-22 08:55:00
4:15 AM,59.0,48.2,67,30.22,10.0,SW,10.4,16.1,N/A,,Overcast,230,2013-11-22 09:15:00
4:35 AM,57.2,48.2,72,30.23,10.0,West,6.9,-,N/A,,Overcast,280,2013-11-22 09:35:00
4:55 AM,57.2,46.4,67,30.23,10.0,NNW,10.4,-,N/A,,Mostly Cloudy,340,2013-11-22 09:55:00
5:15 AM,55.4,46.4,72,30.24,10.0,NNW,4.6,-,N/A,,Mostly Cloudy,330,2013-11-22 10:15:00
5:35 AM,55.4,46.4,72,30.24,10.0,Calm,Calm,-,N/A,,Overcast,0,2013-11-22 10:35:00
5:55 AM,53.6,46.4,77,30.24,9.0,WSW,5.8,-,N/A,Rain,Light Rain,250,2013-11-22 10:55:00
6:15 AM,51.8,48.2,88,30.24,9.0,South,4.6,-,N/A,,Mostly Cloudy,190,2013-11-22 11:15:00
6:35 AM,51.8,50.0,94,30.23,9.0,SSW,4.6,-,N/A,Rain,Light Rain,200,2013-11-22 11:35:00
6:55 AM,51.8,51.8,100,30.24,3.0,SSW,5.8,-,0.02,Rain,Heavy Rain,210,2013-11-22 11:55:00
7:15 AM,51.8,51.8,100,30.24,2.5,Calm,Calm,-,N/A,,Light Drizzle,0,2013-11-22 12:15:00
7:35 AM,51.8,51.8,100,30.24,0.5,Calm,Calm,-,N/A,Fog,Fog,0,2013-11-22 12:35:00
7:55 AM,51.8,51.8,100,30.23,0.8,Calm,Calm,-,N/A,,Overcast,0,2013-11-22 12:55:00
8:15 AM,51.8,51.8,100,30.24,0.2,Calm,Calm,-,N/A,Rain,Light Rain,0,2013-11-22 13:15:00
8:35 AM,51.8,51.8,100,30.24,1.0,Calm,Calm,-,N/A,,Light Drizzle,0,2013-11-22 13:35:00
8:55 AM,51.8,51.8,100,30.24,1.2,Calm,Calm,-,0.01,Rain,Light Rain,0,2013-11-22 13:55:00
9:15 AM,51.8,51.8,100,30.23,1.2,Calm,Calm,-,N/A,,Light Drizzle,0,2013-11-22 14:15:00
9:35 AM,51.8,51.8,100,30.23,1.0,Calm,Calm,-,N/A,,Light Drizzle,0,2013-11-22 14:35:00
9:55 AM,51.8,51.8,100,30.23,1.0,Calm,Calm,-,N/A,,Drizzle,0,2013-11-22 14:55:00
10:15 AM,51.8,51.8,100,30.22,1.2,Calm,Calm,-,N/A,,Overcast,0,2013-11-22 15:15:00
10:35 AM,53.6,53.6,100,30.21,0.8,Calm,Calm,-,N/A,,Light Drizzle,0,2013-11-22 15:35:00
10:55 AM,53.6,53.6,100,30.20,1.8,Calm,Calm,-,N/A,,Light Drizzle,0,2013-11-22 15:55:00
11:15 AM,53.6,53.6,100,30.20,1.0,Calm,Calm,-,N/A,,Light Drizzle,0,2013-11-22 16:15:00
11:35 AM,53.6,53.6,100,30.18,0.8,SSW,3.5,-,N/A,,Overcast,210,2013-11-22 16:35:00
11:55 AM,53.6,53.6,100,30.17,0.8,SW,4.6,-,0.01,,Overcast,220,2013-11-22 16:55:00
12:15 PM,53.6,53.6,100,30.16,0.8,Calm,Calm,-,N/A,,Overcast,0,2013-11-22 17:15:00
12:35 PM,53.6,53.6,100,30.15,0.8,SSW,5.8,-,0.01,,Overcast,210,2013-11-22 17:35:00
12:55 PM,53.6,53.6,100,30.14,0.8,SSW,3.5,-,0.02,Rain,Light Rain,210,2013-11-22 17:55:00
1:15 PM,55.4,55.4,100,30.14,1.0,SW,5.8,-,N/A,Rain,Light Rain,220,2013-11-22 18:15:00
1:35 PM,55.4,55.4,100,30.12,1.0,SW,9.2,-,0.01,Rain,Light Rain,220,2013-11-22 18:35:00
1:55 PM,55.4,55.4,100,30.12,0.8,SW,8.1,-,0.04,,Overcast,230,2013-11-22 18:55:00
2:15 PM,55.4,55.4,100,30.12,1.5,SW,11.5,-,N/A,,Overcast,230,2013-11-22 19:15:00
2:35 PM,55.4,55.4,100,30.12,2.5,SW,9.2,-,0.01,Rain,Light Rain,230,2013-11-22 19:35:00
2:55 PM,55.4,55.4,100,30.12,1.8,WSW,13.8,18.4,0.03,Rain,Light Rain,240,2013-11-22 19:55:00
3:15 PM,53.6,53.6,100,30.12,1.2,West,9.2,16.1,N/A,Rain,Rain,260,2013-11-22 20:15:00
3:35 PM,53.6,53.6,100,30.12,1.5,WSW,11.5,-,0.03,,Overcast,250,2013-11-22 20:35:00
3:55 PM,53.6,53.6,100,30.12,2.0,WSW,12.7,17.3,0.05,Rain,Light Rain,240,2013-11-22 20:55:00
4:15 PM,53.6,53.6,100,30.12,3.0,West,4.6,-,N/A,,Light Drizzle,270,2013-11-22 21:15:00
4:35 PM,53.6,53.6,100,30.12,1.8,West,3.5,-,0.02,,Overcast,270,2013-11-22 21:35:00
4:55 PM,53.6,53.6,100,30.12,1.8,West,3.5,-,0.04,,Overcast,280,2013-11-22 21:55:00
5:15 PM,53.6,53.6,100,30.13,3.0,West,3.5,-,0.02,Rain,Light Rain,280,2013-11-22 22:15:00
5:35 PM,53.6,53.6,100,30.13,3.0,WNW,5.8,19.6,0.05,Rain,Light Rain,300,2013-11-22 22:35:00
5:55 PM,51.8,51.8,100,30.14,3.0,NNW,12.7,19.6,0.09,Rain,Rain,330,2013-11-22 22:55:00
6:15 PM,51.8,51.8,100,30.14,5.0,NW,6.9,-,0.03,Rain,Light Rain,310,2013-11-22 23:15:00
6:35 PM,51.8,51.8,100,30.14,10.0,NW,6.9,-,0.03,,Overcast,320,2013-11-22 23:35:00
6:55 PM,50.0,50.0,100,30.15,2.5,NW,10.4,-,0.03,,Light Drizzle,320,2013-11-22 23:55:00
7:15 PM,50.0,50.0,100,30.15,1.5,NW,6.9,-,0.04,Rain,Rain,320,2013-11-23 00:15:00
7:35 PM,48.2,48.2,100,30.15,3.0,NW,11.5,18.4,0.08,Rain,Light Rain,320,2013-11-23 00:35:00
7:55 PM,48.2,48.2,100,30.16,3.0,NNW,16.1,21.9,0.08,,Drizzle,330,2013-11-23 00:55:00
8:15 PM,46.4,46.4,100,30.17,10.0,NW,6.9,19.6,N/A,,Overcast,310,2013-11-23 01:15:00
8:35 PM,46.4,46.4,100,30.18,10.0,WNW,10.4,17.3,N/A,,Overcast,300,2013-11-23 01:35:00
8:55 PM,46.4,46.4,100,30.18,5.0,NW,11.5,17.3,N/A,,Overcast,320,2013-11-23 01:55:00
9:15 PM,46.4,46.4,100,30.18,5.0,NNW,9.2,-,N/A,,Overcast,330,2013-11-23 02:15:00
9:35 PM,46.4,46.4,100,30.18,9.0,NNW,4.6,-,N/A,,Overcast,340,2013-11-23 02:35:00
9:55 PM,44.6,44.6,100,30.18,7.0,NNW,11.5,21.9,N/A,,Overcast,340,2013-11-23 02:55:00
10:15 PM,44.6,44.6,100,30.19,3.0,NNW,12.7,18.4,N/A,,Overcast,330,2013-11-23 03:15:00
10:35 PM,44.6,44.6,100,30.19,4.0,NW,12.7,19.6,N/A,,Light Drizzle,320,2013-11-23 03:35:00
10:55 PM,44.6,44.6,100,30.19,3.0,North,11.5,16.1,N/A,,Light Drizzle,350,2013-11-23 03:55:00
11:15 PM,42.8,42.8,100,30.20,3.0,NNW,10.4,17.3,N/A,,Light Drizzle,330,2013-11-23 04:15:00
11:35 PM,42.8,42.8,100,30.20,1.2,North,6.9,-,0.01,Rain,Rain,350,2013-11-23 04:35:00
11:55 PM,41.0,41.0,100,30.20,2.0,North,9.2,18.4,0.02,,Light Drizzle,350,2013-11-23 04:55:00